Location: Sobotiste
(48.7170°N, 17.4000°E)
Time: 00:05:02
(UTC+01:00)

QB50P2 - Visible Passes

Search period start: 14 March 2026 00:00
Search period end: 24 March 2026 00:00
Orbit: 519 x 531 km, 98.1° (Epoch: 13 March)

Date Brightness Start Highest point End Pass type
(mag) Time Alt. Az. Time Alt. Az. Time Alt. Az.
14 Mar ? 05:18:45 10° NNE 05:22:34 79° WNW 05:26:20 10° SSW visible
15 Mar ? 05:06:41 10° NNE 05:10:29 75° ESE 05:14:15 10° S visible
16 Mar ? 04:54:38 10° NNE 04:58:23 54° ESE 05:02:05 10° S visible
17 Mar ? 04:42:39 10° NNE 04:46:13 39° E 04:49:46 10° SSE visible
18 Mar ? 04:30:42 10° NE 04:34:02 28° E 04:37:21 10° SSE visible
19 Mar ? 04:18:51 10° NE 04:21:49 21° E 04:24:45 10° SE visible
20 Mar ? 04:07:08 10° NE 04:09:32 16° E 04:11:56 10° SE visible
21 Mar ? 03:55:46 10° ENE 03:57:14 12° E 03:58:41 10° ESE visible
22 Mar ? 05:15:50 10° NNE 05:19:39 90° SW 05:23:26 10° SSW visible
23 Mar ? 05:03:39 10° NNE 05:07:26 65° ESE 05:11:12 10° S visible
